Погода в Песчанке

Россия / Забайкальский край     51°59′07″N   113°35′37″E
темп.,
°C
ветер,
м/с
пор.,
м/с
влажн.,
%
обл.,
%
осадки,
мм/ч
давл.,
гПа
погр.,
м
23 октября, сб
сб2300:00−2ююз01750 0.0 102410
03:00−3ююз01790 0.0 102410
06:00−4юз01810 0.0 102410
09:00−3ссз01750 0.0 102413
12:00+4з12450 0.0 1022317
15:00+7з13380 0.0 1020543
18:00+3юз11550 0.0 102110
21:00−1з01710 0.0 102310
24 октября, вс
вс2400:00−2зюз11751 0.0 102310
03:00−3юз117755 0.0 102310
06:00−4юз118178 0.0 102210
09:00−3зюз11771 0.0 102215
12:00+3з245155 0.0 1020523
15:00+6з464384 0.0 1017853
18:00+3з2260100 0.0 101714
21:000зюз227310 0.0 101912
25 октября, пн
пн2500:00−2юз22804 0.0 101913
03:00−2юз22845 0.0 101821
06:00−3зюз22885 0.0 101821
09:00−2зюз228688 0.0 101961
12:00+4зсз4757100 0.0 1017785
15:00+6зсз595276 0.0 10151142
18:00+3з49655 0.0 1017325
21:00+1зсз410703 0.0 1020383
26 октября, вт
вт2600:00−2з23834 0.0 102281
03:00−3зюз24885 0.0 102387
06:00−3зюз23925 0.0 102342
09:00−3юз22895 0.0 102249
12:00+3зюз386132 0.0 1019789
15:00+7зюз61244100 0.0 10141046
18:00+5з61354100 0.0 1015717
21:00+3з4116364 0.0 1017461
27 октября, ср
ср2700:000з37761 0.0 1019161
03:00−1зсз25792 0.0 1020129
06:00−3зсз22875 0.0 102220
09:00−3зюз11855 0.0 102423
12:00+3зюз12545 0.0 1023406
15:00+6зюз23415 0.0 1021678
18:00+2ю11555 0.0 102110
21:000ююв115993 0.0 102210